Torna al catalogo

THOR ABLESTAR DEB

AttivoLEO
NORAD 13514·DEBRIS·🇺🇸 United States

Lanciato Jun 29, 1961 da Cape Canaveral Space Force Station

Loading…

Prossimi Passaggi (prossime 24 ore)

TLE

AggiornatoSource: Space-Track

Epoca: Sep 14, 2026, 04:39 UTC

1 13514U 61015KX  26257.19434208  .00000193  00000-0  33600-3 0  9998
2 13514  66.7151 181.4481 0244739 330.9488  96.9066 13.51370830276599

Traccia THOR ABLESTAR DEB in tempo reale con AllMySat

Download on the App Store